datetime,unregulated inflow
1962-11-01,393.637432
1962-11-02,796.234783
1962-11-03,938.496285
1962-11-04,693.291353
1962-11-05,838.559086
1962-11-06,715.653732
1962-11-07,820.484158
1962-11-08,667.146799
1962-11-09,776.979383
1962-11-10,674.075341
1962-11-11,728.471403
1962-11-12,758.833864
1962-11-13,722.79497
1962-11-14,880.060856
1962-11-15,775.155778
1962-11-16,846.590432
1962-11-17,754.688579
1962-11-18,807.120963
1962-11-19,862.518097
1962-11-20,760.650883
1962-11-21,810.047864
1962-11-22,757.616096
1962-11-23,810.011614
1962-11-24,707.145914
1962-11-25,759.541987
1962-11-26,759.542233
1962-11-27,760.505701
1962-11-28,607.206131
1962-11-29,659.60448
1962-11-30,712.036925
1962-12-01,605.133519
1962-12-02,605.135612
1962-12-03,605.109086
1962-12-04,552.646116
1962-12-05,552.656517
1962-12-06,554.624934
1962-12-07,609.068324
1962-12-08,504.171677
1962-12-09,556.6096
1962-12-10,650.013491
1962-12-11,557.153339
1962-12-12,504.685384
1962-12-13,557.124968
1962-12-14,557.091365
1962-12-15,557.095119
1962-12-16,504.667844
1962-12-17,740.108848
1962-12-18,504.077515
1962-12-19,556.513776
1962-12-20,504.080192
1962-12-21,556.515499
1962-12-22,508.084418
1962-12-23,455.649573
1962-12-24,459.649645
1962-12-25,512.082736
1962-12-26,504.083824
1962-12-27,500.085998
1962-12-28,500.084737
1962-12-29,237.91745
1962-12-30,237.912081
1962-12-31,290.344741
1963-01-01,342.775647
1963-01-02,284.773302
1963-01-03,400.07547
1963-01-04,400.073716
1963-01-05,456.51011
1963-01-06,508.944678
1963-01-07,508.946863
1963-01-08,460.515997
1963-01-09,512.950565
1963-01-10,467.519746
1963-01-11,523.954385
1963-01-12,419.090357
1963-01-13,419.088603
1963-01-14,415.089763
1963-01-15,362.656887
1963-01-16,362.656887
1963-01-17,314.223344
1963-01-18,314.223129
1963-01-19,314.263194
1963-01-20,314.264886
1963-01-21,314.262148
1963-01-22,314.262856
1963-01-23,314.262548
1963-01-24,366.694931
1963-01-25,318.302438
1963-01-26,318.304069
1963-01-27,322.30131
1963-01-28,378.735734
1963-01-29,378.735734
1963-01-30,378.778661
1963-01-31,427.213834
1963-02-01,374.779482
1963-02-02,532.081678
1963-02-03,532.084324
1963-02-04,479.653695
1963-02-05,633.001239
1963-02-06,633.005855
1963-02-07,633.010102
1963-02-08,682.01554
1963-02-09,812.453673
1963-02-10,864.893934
1963-02-11,816.511812
1963-02-12,711.646614
1963-02-13,768.085439
1963-02-14,715.656625
1963-02-15,760.093358
1963-02-16,720.708881
1963-02-17,720.714543
1963-02-18,777.151644
1963-02-19,672.286693
1963-02-20,781.159132
1963-02-21,728.777522
1963-02-22,728.779491
1963-02-23,785.218747
1963-02-24,842.657043
1963-02-25,790.229768
1963-02-26,846.673578
1963-02-27,850.725377
1963-02-28,580.296032
1963-03-01,816.774481
1963-03-02,714.977058
1963-03-03,772.422247
1963-03-04,772.436956
1963-03-05,554.718112
1963-03-06,582.160872
1963-03-07,833.401283
1963-03-08,885.849421
1963-03-09,726.559544
1963-03-10,726.571914
1963-03-11,724.58848
1963-03-12,670.220113
1963-03-13,670.229837
1963-03-14,672.243797
1963-03-15,724.69212
1963-03-16,724.758526
1963-03-17,724.778774
1963-03-18,724.846287
1963-03-19,726.861724
1963-03-20,765.375664
1963-03-21,781.393183
1963-03-22,765.46521
1963-03-23,936.853496
1963-03-24,936.880267
1963-03-25,991.395047
1963-03-26,1041.86431
1963-03-27,1014.95587
1963-03-28,1080.43111
1963-03-29,1158.97002
1963-03-30,1272.50975
1963-03-31,1272.55357
1963-04-01,1314.03349
1963-04-02,1314.13159
1963-04-03,1325.17539
1963-04-04,1223.41071
1963-04-05,1349.74417
1963-04-06,1218.99186
1963-04-07,1221.03167
1963-04-08,1221.14565
1963-04-09,1221.27366
1963-04-10,1273.76808
1963-04-11,1273.90717
1963-04-12,1267.96942
1963-04-13,1257.10841
1963-04-14,1152.29583
1963-04-15,1202.86972
1963-04-16,1098.15795
1963-04-17,1045.86995
1963-04-18,1096.36296
1963-04-19,1123.52459
1963-04-20,993.374297
1963-04-21,987.530218
1963-04-22,1030.0202
1963-04-23,875.864059
1963-04-24,930.455646
1963-04-25,1046.48637
1963-04-26,1046.5553
1963-04-27,886.41107
1963-04-28,991.486317
1963-04-29,971.246892
1963-04-30,1109.32778
1963-05-01,1107.874
1963-05-02,1188.97928
1963-05-03,1189.22705
1963-05-04,1084.58274
1963-05-05,1189.59078
1963-05-06,1137.40543
1963-05-07,1137.65788
1963-05-08,1195.35497
1963-05-09,1088.61422
1963-05-10,1453.17337
1963-05-11,1558.61086
1963-05-12,1714.54469
1963-05-13,1822.094
1963-05-14,2345.13575
1963-05-15,1918.39605
1963-05-16,1600.46152
1963-05-17,1491.23244
1963-05-18,1126.72573
1963-05-19,1179.51297
1963-05-20,1025.71871
1963-05-21,973.790067
1963-05-22,1288.98885
1963-05-23,1237.05116
1963-05-24,1761.89996
1963-05-25,2026.41986
1963-05-26,2446.52403
1963-05-27,2861.74322
1963-05-28,3439.3773
1963-05-29,3609.59964
1963-05-30,4017.61943
1963-05-31,4012.65703
1963-06-01,4212.11293
1963-06-02,4422.55145
1963-06-03,4942.97882
1963-06-04,5308.15475
1963-06-05,5502.13596
1963-06-06,6492.77882
1963-06-07,6127.07607
1963-06-08,6287.15943
1963-06-09,6288.35978
1963-06-10,6341.95411
1963-06-11,4927.29105
1963-06-12,4194.17561
1963-06-13,4247.53214
1963-06-14,4298.55344
1963-06-15,4401.43158
1963-06-16,5293.99623
1963-06-17,5298.17727
1963-06-18,7031.95736
1963-06-19,10020.1527
1963-06-20,10700.9062
1963-06-21,9129.65199
1963-06-22,8819.46521
1963-06-23,7144.70959
1963-06-24,7098.88307
1963-06-25,7315.37356
1963-06-26,6002.85355
1963-06-27,5520.28302
1963-06-28,5049.05526
1963-06-29,4211.24885
1963-06-30,3063.67294
1963-07-01,2802.39381
1963-07-02,3424.99869
1963-07-03,3152.77559
1963-07-04,3151.69858
1963-07-05,3154.73884
1963-07-06,3050.80806
1963-07-07,2948.28344
1963-07-08,2427.90826
1963-07-09,2586.08179
1963-07-10,2951.07211
1963-07-11,3631.15967
1963-07-12,2006.5678
1963-07-13,3003.77726
1963-07-14,2690.06747
1963-07-15,3374.78164
1963-07-16,2692.82192
1963-07-17,2745.57975
1963-07-18,1959.30017
1963-07-19,1963.88432
1963-07-20,1597.01199
1963-07-21,1544.73396
1963-07-22,1597.32857
1963-07-23,1122.90977
1963-07-24,1177.45569
1963-07-25,2060.03596
1963-07-26,2154.12736
1963-07-27,1052.49748
1963-07-28,1052.62857
1963-07-29,1052.75965
1963-07-30,1315.06361
1963-07-31,1315.66108
1963-08-01,1164.47376
1963-08-02,1531.706
1963-08-03,1059.93554
1963-08-04,1112.50652
1963-08-05,1111.96752
1963-08-06,1007.28695
1963-08-07,1057.81659
1963-08-08,846.181473
1963-08-09,639.835866
1963-08-10,2005.39059
1963-08-11,2005.63147
1963-08-12,2949.82942
1963-08-13,1926.91901
1963-08-14,1927.11497
1963-08-15,1798.30805
1963-08-16,1223.98171
1963-08-17,1277.55696
1963-08-18,1487.45956
1963-08-19,1957.59122
1963-08-20,690.58921
1963-08-21,1682.98613
1963-08-22,636.444493
1963-08-23,797.120707
1963-08-24,1482.92144
1963-08-25,1589.96855
1963-08-26,750.431778
1963-08-27,907.824444
1963-08-28,1491.75692
1963-08-29,549.970129
1963-08-30,1023.36091
1963-08-31,551.473952
1963-09-01,1180.79875
1963-09-02,1126.45075
1963-09-03,1167.3854
1963-09-04,1469.11039
1963-09-05,935.870949
1963-09-06,944.277773
1963-09-07,1326.44873
1963-09-08,1221.70668
1963-09-09,1268.27086
1963-09-10,1525.90635
1963-09-11,1471.62729
1963-09-12,1002.8257
1963-09-13,1009.19518
1963-09-14,850.039471
1963-09-15,904.525879
1963-09-16,903.91198
1963-09-17,900.563565
1963-09-18,908.009629
1963-09-19,975.793688
1963-09-20,1083.05386
1963-09-21,2080.7846
1963-09-22,2187.41371
1963-09-23,2082.09942
1963-09-24,3027.41009
1963-09-25,1859.95958
1963-09-26,2155.00301
1963-09-27,2121.76146
1963-09-28,1857.13829
1963-09-29,1596.37969
1963-09-30,1755.13543
1963-10-01,1438.51228
1963-10-02,1377.15395
1963-10-03,1276.74385
1963-10-04,1171.18536
1963-10-05,1065.74688
1963-10-06,1107.47728
1963-10-07,1053.72995
1963-10-08,1085.45358
1963-10-09,1177.31328
1963-10-10,1019.28591
1963-10-11,798.936988
1963-10-12,839.881294
1963-10-13,891.70427
1963-10-14,910.991673
1963-10-15,962.748121
1963-10-16,852.19332
1963-10-17,846.503347
1963-10-18,616.060502
1963-10-19,850.100953
1963-10-20,901.809704
1963-10-21,848.746004
1963-10-22,900.450694
1963-10-23,877.529866
1963-10-24,960.733299
1963-10-25,647.445698
1963-10-26,911.875135
1963-10-27,858.732105
1963-10-28,913.42407
1963-10-29,789.907094
1963-10-30,804.155166
1963-10-31,912.872268
1963-11-01,644.696781
1963-11-02,1009.04809
1963-11-03,957.927516
1963-11-04,1018.60782
1963-11-05,1014.88596
1963-11-06,699.545191
1963-11-07,870.078386
1963-11-08,1732.46958
1963-11-09,628.25658
1963-11-10,719.568535
1963-11-11,960.000497
1963-11-12,1088.80009
1963-11-13,987.196097
1963-11-14,1176.76369
1963-11-15,1014.81893
1963-11-16,1068.91368
1963-11-17,1017.66281
1963-11-18,964.187631
1963-11-19,920.934263
1963-11-20,456.672339
1963-11-21,666.171698
1963-11-22,764.051426
1963-11-23,729.285258
1963-11-24,779.732977
1963-11-25,778.967556
1963-11-26,912.549163
1963-11-27,660.308911
1963-11-28,514.515163
1963-11-29,568.14205
1963-11-30,497.280615
1963-12-01,929.982743
1963-12-02,912.998741
1963-12-03,570.754216
1963-12-04,437.671238
1963-12-05,443.67133
1963-12-06,277.584029
1963-12-07,285.580326
1963-12-08,262.793541
1963-12-09,469.226818
1963-12-10,552.009568
1963-12-11,416.184843
1963-12-12,405.958813
1963-12-13,259.776601
1963-12-14,298.981309
1963-12-15,237.7851
1963-12-16,229.77291
1963-12-17,226.28456
1963-12-18,566.919421
1963-12-19,777.219281
1963-12-20,620.481441
1963-12-21,813.213616
1963-12-22,864.646959
1963-12-23,878.647132
1963-12-24,742.344304
1963-12-25,756.307859
1963-12-26,636.469234
1963-12-27,352.192345
1963-12-28,853.193469
1963-12-29,753.32366
1963-12-30,724.452899
1963-12-31,272.405609
1964-01-01,338.261346
1964-01-02,653.857395
1964-01-03,599.418806
1964-01-04,659.848194
1964-01-05,281.803012
1964-01-06,414.793583
1964-01-07,497.217041
1964-01-08,602.075468
1964-01-09,444.763948
1964-01-10,412.284964
1964-01-11,664.511369
1964-01-12,392.298392
1964-01-13,416.686456
1964-01-14,592.045487
1964-01-15,309.831362
1964-01-16,348.035244
1964-01-17,396.023086
1964-01-18,349.792505
1964-01-19,259.102881
1964-01-20,382.922437
1964-01-21,599.581036
1964-01-22,205.498442
1964-01-23,574.491588
1964-01-24,474.682524
1964-01-25,275.623735
1964-01-26,577.283278
1964-01-27,636.243245
1964-01-28,456.497801
1964-01-29,386.050525
1964-01-30,607.494648
1964-01-31,244.509686
1964-02-01,659.901737
1964-02-02,753.829981
1964-02-03,509.61809
1964-02-04,604.041609
1964-02-05,290.138108
1964-02-06,657.662896
1964-02-07,409.447579
1964-02-08,701.040521
1964-02-09,362.424682
1964-02-10,616.115584
1964-02-11,615.747921
1964-02-12,418.391773
1964-02-13,782.55033
1964-02-14,396.535315
1964-02-15,592.859219
1964-02-16,350.817209
1964-02-17,525.671212
1964-02-18,855.233585
1964-02-19,109.943563
1964-02-20,342.294067
1964-02-21,566.820274
1964-02-22,728.078692
1964-02-23,406.460272
1964-02-24,889.357419
1964-02-25,475.274821
1964-02-26,516.761697
1964-02-27,576.450897
1964-02-28,563.871155
1964-02-29,339.118498
1964-03-01,442.575419
1964-03-02,617.609129
1964-03-03,632.60939
1964-03-04,378.433615
1964-03-05,466.261236
1964-03-06,256.582107
1964-03-07,618.314298
1964-03-08,263.267797
1964-03-09,666.736425
1964-03-10,264.223081
1964-03-11,343.712621
1964-03-12,737.880346
1964-03-13,638.013676
1964-03-14,621.013426
1964-03-15,626.013492
1964-03-16,532.873809
1964-03-17,716.610985
1964-03-18,815.18345
1964-03-19,673.952623
1964-03-20,619.217085
1964-03-21,875.394664
1964-03-22,923.573077
1964-03-23,886.883788
1964-03-24,729.5883
1964-03-25,788.76164
1964-03-26,1138.81897
1964-03-27,456.911345
1964-03-28,686.082602
1964-03-29,635.385386
1964-03-30,1374.22569
1964-03-31,1652.44525
1964-04-01,1510.18991
1964-04-02,1560.40942
1964-04-03,1555.42339
1964-04-04,1318.53444
1964-04-05,1684.59132
1964-04-06,1593.52012
1964-04-07,1279.95606
1964-04-08,1822.06705
1964-04-09,1781.51188
1964-04-10,2074.12654
1964-04-11,1746.40938
1964-04-12,1809.84469
1964-04-13,1249.93536
1964-04-14,1093.62943
1964-04-15,1713.65083
1964-04-16,2011.09422
1964-04-17,2485.83675
1964-04-18,2432.27221
1964-04-19,2757.15934
1964-04-20,2633.61479
1964-04-21,2509.50798
1964-04-22,2235.41715
1964-04-23,3049.48561
1964-04-24,2023.65544
1964-04-25,1840.78252
1964-04-26,2483.10519
1964-04-27,2018.64282
1964-04-28,1834.20521
1964-04-29,2159.69338
1964-04-30,2205.45786
1964-05-01,1969.384
1964-05-02,2872.92229
1964-05-03,2275.11956
1964-05-04,2174.54932
1964-05-05,2748.42701
1964-05-06,2947.3172
1964-05-07,2429.43775
1964-05-08,2817.11558
1964-05-09,2507.75324
1964-05-10,2872.47819
1964-05-11,1992.81706
1964-05-12,2590.4711
1964-05-13,2561.46082
1964-05-14,2938.56912
1964-05-15,2574.93522
1964-05-16,3060.25258
1964-05-17,3325.90305
1964-05-18,2833.0094
1964-05-19,2996.02249
1964-05-20,4068.1863
1964-05-21,5400.10467
1964-05-22,5725.85859
1964-05-23,6173.80506
1964-05-24,7278.75351
1964-05-25,6774.97941
1964-05-26,7954.73609
1964-05-27,8023.73657
1964-05-28,8037.50909
1964-05-29,7189.88768
1964-05-30,8057.532
1964-05-31,7928.98665
1964-06-01,8256.63316
1964-06-02,7573.17424
1964-06-03,5888.95662
1964-06-04,7213.31175
1964-06-05,6970.18361
1964-06-06,7520.3593
1964-06-07,7782.41536
1964-06-08,8317.07658
1964-06-09,8695.61245
1964-06-10,8015.53696
1964-06-11,8001.98255
1964-06-12,7950.75593
1964-06-13,7634.91451
1964-06-14,8134.78575
1964-06-15,7432.50672
1964-06-16,7391.58697
1964-06-17,8139.67824
1964-06-18,9764.42286
1964-06-19,8778.79607
1964-06-20,8892.67381
1964-06-21,8976.64617
1964-06-22,8364.34421
1964-06-23,7878.00178
1964-06-24,7659.98155
1964-06-25,7933.6369
1964-06-26,7201.19943
1964-06-27,6514.08283
1964-06-28,7338.25753
1964-06-29,7382.58089
1964-06-30,7746.4009
1964-07-01,7655.42879
1964-07-02,7638.44466
1964-07-03,7178.12345
1964-07-04,7179.46363
1964-07-05,7033.76823
1964-07-06,6781.31645
1964-07-07,6592.42812
1964-07-08,6758.69786
1964-07-09,6023.66669
1964-07-10,6761.71154
1964-07-11,6289.75166
1964-07-12,6163.78277
1964-07-13,7062.7086
1964-07-14,5721.20588
1964-07-15,5981.7071
1964-07-16,5893.13224
1964-07-17,5605.89737
1964-07-18,6120.87147
1964-07-19,5554.96469
1964-07-20,5153.64135
1964-07-21,5875.72617
1964-07-22,4967.21034
1964-07-23,6001.53701
1964-07-24,5712.11167
1964-07-25,5118.78589
1964-07-26,4991.68509
1964-07-27,5084.4592
1964-07-28,3788.58188
1964-07-29,3398.84725
1964-07-30,2447.51735
1964-07-31,2768.51713
1964-08-01,2361.51035
1964-08-02,1968.46528
1964-08-03,2618.47526
1964-08-04,2840.66988
1964-08-05,2285.13964
1964-08-06,1930.47711
1964-08-07,1830.90843
1964-08-08,2115.12088
1964-08-09,1890.78823
1964-08-10,1944.04764
1964-08-11,1154.90862
1964-08-12,1202.26523
1964-08-13,1293.2179
1964-08-14,1455.54268
1964-08-15,1005.98801
1964-08-16,1303.80294
1964-08-17,1703.11194
1964-08-18,1063.44219
1964-08-19,1692.70956
1964-08-20,755.53136
1964-08-21,620.461993
1964-08-22,1017.33361
1964-08-23,895.898112
1964-08-24,918.75795
1964-08-25,855.958325
1964-08-26,949.588944
1964-08-27,602.503875
1964-08-28,1014.26719
1964-08-29,734.376287
1964-08-30,357.260478
1964-08-31,680.958894
1964-09-01,715.968652
1964-09-02,813.157242
1964-09-03,587.275163
1964-09-04,534.762404
1964-09-05,706.116717
1964-09-06,530.066364
1964-09-07,588.007289
1964-09-08,990.143308
1964-09-09,491.111924
1964-09-10,891.751166
1964-09-11,809.190374
1964-09-12,618.560166
1964-09-13,636.150191
1964-09-14,750.244869
1964-09-15,840.125561
1964-09-16,1111.06492
1964-09-17,616.766656
1964-09-18,890.448284
1964-09-19,1061.26846
1964-09-20,1104.99362
1964-09-21,417.995247
1964-09-22,435.633583
1964-09-23,534.206663
1964-09-24,313.483772
1964-09-25,349.728745
1964-09-26,471.103658
1964-09-27,457.966914
1964-09-28,757.139747
1964-09-29,296.259164
1964-09-30,302.545866
1964-10-01,293.707034
1964-10-02,332.467488
1964-10-03,281.973027
1964-10-04,425.417616
1964-10-05,791.325802
1964-10-06,930.266091
1964-10-07,463.678796
1964-10-08,450.019883
1964-10-09,343.92467
1964-10-10,392.443851
1964-10-11,618.288635
1964-10-12,344.359324
1964-10-13,353.208064
1964-10-14,481.86795
1964-10-15,385.852877
1964-10-16,534.387725
1964-10-17,567.804975
1964-10-18,594.193982
1964-10-19,885.523547
1964-10-20,861.8541
1964-10-21,600.682424
1964-10-22,684.584564
1964-10-23,637.621334
1964-10-24,421.453948
1964-10-25,569.901281
1964-10-26,858.633573
1964-10-27,700.057789
1964-10-28,583.923918
1964-10-29,385.613072
1964-10-30,849.288636
1964-10-31,960.335726
1964-11-01,465.581669
1964-11-02,829.907009
1964-11-03,478.584033
1964-11-04,472.278683
1964-11-05,555.981914
1964-11-06,375.27614
1964-11-07,707.310175
1964-11-08,546.291285
1964-11-09,396.822017
1964-11-10,458.172347
1964-11-11,564.396432
1964-11-12,597.433095
1964-11-13,1003.40656
1964-11-14,773.465908
1964-11-15,569.82152
1964-11-16,347.390542
1964-11-17,228.813704
1964-11-18,536.197852
1964-11-19,564.926632
1964-11-20,514.870917
1964-11-21,749.010608
1964-11-22,768.56068
1964-11-23,392.699566
1964-11-24,435.082951
1964-11-25,845.945083
1964-11-26,566.168894
1964-11-27,762.435839
1964-11-28,834.834085
1964-11-29,738.737159
1964-11-30,941.276712
1964-12-01,1120.05364
1964-12-02,808.445878
1964-12-03,860.38708
1964-12-04,634.819859
1964-12-05,752.476387
1964-12-06,329.401528
1964-12-07,312.181782
1964-12-08,303.646885
1964-12-09,515.823769
1964-12-10,666.135572
1964-12-11,716.566981
1964-12-12,764.206085
1964-12-13,236.35253
1964-12-14,206.841035
1964-12-15,208.209432
1964-12-16,587.180755
1964-12-17,879.374519
1964-12-18,423.52139
1964-12-19,416.230354
1964-12-20,248.873867
1964-12-21,366.20095
1964-12-22,1190.92012
1964-12-23,1181.01723
1964-12-24,1985.20077
1964-12-25,1704.97057
1964-12-26,1767.71523
1964-12-27,1104.45524
1964-12-28,1149.96283
1964-12-29,696.551884
1964-12-30,706.500197
1964-12-31,556.445585
1965-01-01,516.59676
1965-01-02,295.07743
1965-01-03,362.853612
1965-01-04,480.104104
1965-01-05,754.650545
1965-01-06,721.034509
1965-01-07,1006.78716
1965-01-08,564.769387
1965-01-09,701.953708
1965-01-10,626.567571
1965-01-11,749.490096
1965-01-12,591.337425
1965-01-13,491.292217
1965-01-14,364.516403
1965-01-15,310.269585
1965-01-16,582.155702
1965-01-17,873.577952
1965-01-18,747.296674
1965-01-19,728.051551
1965-01-20,877.787365
1965-01-21,1012.55751
1965-01-22,468.149401
1965-01-23,814.85019
1965-01-24,1001.56018
1965-01-25,510.95433
1965-01-26,436.271823
1965-01-27,785.926193
1965-01-28,858.014812
1965-01-29,1502.0223
1965-01-30,1539.80504
1965-01-31,2895.22134
1965-02-01,1974.61412
1965-02-02,1086.47028
1965-02-03,1810.21764
1965-02-04,1625.56279
1965-02-05,1351.6865
1965-02-06,1636.22636
1965-02-07,1421.03026
1965-02-08,709.848919
1965-02-09,1653.55292
1965-02-10,961.905524
1965-02-11,715.217694
1965-02-12,822.49941
1965-02-13,615.038259
1965-02-14,1263.96599
1965-02-15,500.302417
1965-02-16,1040.38972
1965-02-17,433.312858
1965-02-18,1029.69205
1965-02-19,1197.17519
1965-02-20,1633.87084
1965-02-21,1356.92117
1965-02-22,1586.92065
1965-02-23,1374.87793
1965-02-24,1598.16003
1965-02-25,730.743355
1965-02-26,719.625709
1965-02-27,1652.21853
1965-02-28,1269.68797
1965-03-01,1304.23313
1965-03-02,1500.68852
1965-03-03,1360.59681
1965-03-04,1285.47211
1965-03-05,1245.38518
1965-03-06,1130.19766
1965-03-07,1052.97272
1965-03-08,1191.35105
1965-03-09,1229.61014
1965-03-10,1007.34764
1965-03-11,997.25125
1965-03-12,1112.66444
1965-03-13,1020.197
1965-03-14,1121.68024
1965-03-15,1244.63139
1965-03-16,1197.86584
1965-03-17,1407.24691
1965-03-18,558.853795
1965-03-19,968.478035
1965-03-20,749.229827
1965-03-21,1021.34319
1965-03-22,1336.43902
1965-03-23,1451.83393
1965-03-24,822.530305
1965-03-25,1105.22736
1965-03-26,967.791883
1965-03-27,1285.41734
1965-03-28,1335.02092
1965-03-29,1243.3642
1965-03-30,1463.57452
1965-03-31,1883.01906
1965-04-01,1707.24227
1965-04-02,4685.32043
1965-04-03,4460.41862
1965-04-04,3761.98707
1965-04-05,3751.98103
1965-04-06,3302.95655
1965-04-07,2880.74869
1965-04-08,3045.81735
1965-04-09,3113.3617
1965-04-10,3027.34116
1965-04-11,3126.03406
1965-04-12,2459.65182
1965-04-13,2887.42546
1965-04-14,2667.56532
1965-04-15,2583.14271
1965-04-16,2538.19528
1965-04-17,2508.64957
1965-04-18,2543.62812
1965-04-19,2616.57085
1965-04-20,2826.72183
1965-04-21,2829.56762
1965-04-22,3216.5574
1965-04-23,3519.1568
1965-04-24,3582.05484
1965-04-25,4199.32461
1965-04-26,3712.21042
1965-04-27,3518.68341
1965-04-28,3748.77065
1965-04-29,3634.52046
1965-04-30,3808.2407
1965-05-01,4135.76314
1965-05-02,3983.39294
1965-05-03,4423.63363
1965-05-04,4302.20669
1965-05-05,4704.56445
1965-05-06,4662.78555
1965-05-07,4844.49738
1965-05-08,4813.47584
1965-05-09,4617.50997
1965-05-10,4811.82745
1965-05-11,4830.20493
1965-05-12,4951.30594
1965-05-13,5525.4911
1965-05-14,7191.18896
1965-05-15,7801.42305
1965-05-16,7134.73899
1965-05-17,6593.55018
1965-05-18,5667.99164
1965-05-19,6342.8881
1965-05-20,6218.65919
1965-05-21,5787.2685
1965-05-22,5823.21156
1965-05-23,5454.52714
1965-05-24,7270.36386
1965-05-25,8142.19119
1965-05-26,8100.86181
1965-05-27,7722.56818
1965-05-28,7034.10795
1965-05-29,7050.003
1965-05-30,6773.32412
1965-05-31,7014.00035
1965-06-01,6730.91255
1965-06-02,9501.55196
1965-06-03,8449.01079
1965-06-04,9651.33092
1965-06-05,9980.0025
1965-06-06,8979.92227
1965-06-07,9856.22754
1965-06-08,10397.1259
1965-06-09,11272.1668
1965-06-10,18747.8713
1965-06-11,20547.2965
1965-06-12,18576.4684
1965-06-13,19572.8697
1965-06-14,20344.1763
1965-06-15,17647.584
1965-06-16,16254.4229
1965-06-17,16055.9741
1965-06-18,17414.1783
1965-06-19,18467.4206
1965-06-20,18164.623
1965-06-21,17572.4552
1965-06-22,17075.9709
1965-06-23,16268.4617
1965-06-24,16939.641
1965-06-25,16948.9346
1965-06-26,17324.2731
1965-06-27,17606.3801
1965-06-28,19275.4309
1965-06-29,18476.2888
1965-06-30,19982.279
1965-07-01,19825.8828
1965-07-02,12651.1974
1965-07-03,10924.3752
1965-07-04,10360.1986
1965-07-05,9456.23207
1965-07-06,9400.38573
1965-07-07,9892.86334
1965-07-08,10227.775
1965-07-09,10324.5041
1965-07-10,10093.0531
1965-07-11,9769.88598
1965-07-12,9958.83537
1965-07-13,9541.55545
1965-07-14,9281.68197
1965-07-15,9646.88302
1965-07-16,10024.0157
1965-07-17,9024.42781
1965-07-18,9698.77973
1965-07-19,9136.85803
1965-07-20,7034.03114
1965-07-21,8157.70172
1965-07-22,6967.63865
1965-07-23,8011.93591
1965-07-24,6271.25946
1965-07-25,7553.41916
1965-07-26,7800.43834
1965-07-27,7062.60422
1965-07-28,6534.93437
1965-07-29,6321.84454
1965-07-30,6756.98104
1965-07-31,6355.7227
1965-08-01,6217.33722
1965-08-02,5512.28282
1965-08-03,6589.90876
1965-08-04,4869.68308
1965-08-05,4436.06893
1965-08-06,4271.66618
1965-08-07,3770.60517
1965-08-08,3613.43185
1965-08-09,3624.41644
1965-08-10,2931.05289
1965-08-11,3354.62309
1965-08-12,2665.30519
1965-08-13,2852.38265
1965-08-14,2926.38344
1965-08-15,2769.33911
1965-08-16,3240.10948
1965-08-17,2620.64702
1965-08-18,3314.50538
1965-08-19,3896.10583
1965-08-20,2451.32076
1965-08-21,3711.77814
1965-08-22,3971.15803
1965-08-23,3435.2546
1965-08-24,3743.80185
1965-08-25,3977.55268
1965-08-26,2973.09692
1965-08-27,3130.69958
1965-08-28,2711.49924
1965-08-29,2969.75411
1965-08-30,1594.8342
1965-08-31,2281.94354
1965-09-01,2317.85042
1965-09-02,2210.49313
1965-09-03,2115.79196
1965-09-04,1127.0945
1965-09-05,2681.43238
1965-09-06,2813.84
1965-09-07,2946.24
1965-09-08,3078.64458
1965-09-09,1576.86895
1965-09-10,2189.21719
1965-09-11,1584.13506
1965-09-12,1199.22817
1965-09-13,1806.73168
1965-09-14,900.948398
1965-09-15,3321.86183
1965-09-16,6201.81046
1965-09-17,2423.34761
1965-09-18,1931.64545
1965-09-19,1879.54688
1965-09-20,2217.01235
1965-09-21,2375.50788
1965-09-22,2562.94427
1965-09-23,1755.1102
1965-09-24,2134.45746
1965-09-25,2020.6329
1965-09-26,1213.40196
1965-09-27,1712.1787
1965-09-28,2127.2593
1965-09-29,1239.09035
1965-09-30,1248.39184
1965-10-01,2159.40314
1965-10-02,2379.1525
1965-10-03,2426.67443
1965-10-04,2374.19256
1965-10-05,2351.35267
1965-10-06,2165.83447
1965-10-07,2693.10379
1965-10-08,1658.53415
1965-10-09,1886.96082
1965-10-10,2099.74059
1965-10-11,2023.83662
1965-10-12,2070.68304
1965-10-13,1899.10317
1965-10-14,2327.01356
1965-10-15,2190.84367
1965-10-16,1834.39551
1965-10-17,1831.99025
1965-10-18,1767.70133
1965-10-19,2089.64297
1965-10-20,1503.70799
1965-10-21,1087.75372
1965-10-22,1136.13369
1965-10-23,1112.94004
1965-10-24,1451.32853
1965-10-25,1766.10402
1965-10-26,1226.21612
1965-10-27,2093.78389
1965-10-28,1855.91615
1965-10-29,1283.07474